ONEWEB-0609, 56070

Orbit data source: Space-Track

ONEWEB-0609, 56070 is a payload satellite owned by One Web (NAA) (UK) in LEO that was launched on Sun, 26 Mar 2023 UTC via a LVM3 launch vehicle from the Sirharikota (SRI). Payloads include a variety of satellites, spacecraft, and rockets equipped with specific instruments for various scientific and technological missions. These include communications satellites like Starlink; space stations such as the ISS; scientific satellites like the Hubble; Earth observation satellites from companies like Planet Labs, Umbra, and HawkEye 360; GPS; miniature CubeSats for education and research; and military/defense satellites.

Loading next visibility...
ONEWEB-0609 details
Identifier
56070, 2023-043AA
Orbit
LEO
Last TLE update17 hours ago
Origin
Flag of UKOne Web (NAA) (UK)
ManufacturerOne Web
MissionOperational Commercial Communications
Bus & MotorARROW, Unknown motor
Mass148 kg wet, ~140 kg dry
Launch date (UTC)
2023-03-26 (2 years ago)
Launch vehicle
LVM3
Launch site
Sirharikota (SRI)
Object type
Payload
Rocket body
Debris
Shape & HBRTrap Box + 2 Pan, 5 m
Radar Cross Section2.032 m², Large (>1 m²)

Expand to show TLE details & history

TLE from 17 hours ago
0 ONEWEB-0609
1 56070U 23043AA  25014.92912634  .00000042  00000-0  76755-4 0  9998
2 56070  87.9075   2.4047 0001826  89.6110 270.5230 13.15547824 88291
Epoch: 2025-01-14T22:17Z
Definitive object data (Epoch: 2025-01-14T22:17:56.515Z)
Latitude0.00001°
Longitude-86.70955°
Altitude1,204.657 km
Speed7.252 km/s
True Right ascension00h 09m 37s
True Declination0° 00' 00"
Sunlit
Object was in daylight at TLE epoch
Visualization TLE readout
Latitude54.70279°
Longitude-83.90444°
Altitude1,209.7 km
Speed7.255 km/s
Apparent Right ascension02h 06m 45s
Apparent Declination13° 59' 37"
Sunlit
Object is in daylight
Visualization observer readout
Local Sidereal Time15:41:01
Azimuth27.16° NE
Elevation-31.802°
Doppler factor1
Orbital elements
Apogee altitude1,200.269 km
Perigee altitude1,197.502 km
Semi-major axis7,577.023 km
Eccentricity0.0001826
Inclination87.9075°
RAAN2.4047°
Arg. of periapsis89.611°
True anomaly270.50208°
Mean anomaly270.523°
Eccentric anomaly270.51254°
Mean motion3.29075 °/min
BSTAR0.000076755
Orbital period109.4 mins
Loading maneuver chart data...
Loading historical data...
Loading historical data...
Loading historical data...
Loading historical data...
Loading historical data...
Loading historical data...
Loading historical data...

ONEWEB-0609 Visibility forecast

Observer location: undefined°, undefined

Span
Click to sort rows by Start time (UTC) header in descending order
Start Az.
Max El. time (UTC)
Max El. Az.
Max El.
End time (UTC)
End Az.
10 mins2025-01-15 22:09:14.318Z125.457° SE2025-01-15 22:14:14.318Z78.755° E23.079°2025-01-15 22:19:14.318Z29.663° NE
12 mins2025-01-15 23:58:14.318Z201.546° SSW2025-01-16 00:03:14.318Z267.893° W39.923°2025-01-16 00:10:14.318Z351.75° N
8 mins2025-01-16 09:37:14.318Z41.637° NE2025-01-16 09:40:14.318Z69.73° E18.032°2025-01-16 09:45:14.318Z115.194° SE
12 mins2025-01-16 11:25:14.318Z354.085° N2025-01-16 11:31:14.318Z251.831° W43.667°2025-01-16 11:37:14.318Z190.587° SSW
|